Location: Middle Street
(51.7167°N, 0.0333°E)
Time: 02:16:23
(UTC+00:00)

CZ-4B R/B - Pass Details

Date: 20 January 2021
Orbit: 387 x 458 km, 97.6° (Epoch: 28 February)

Event Time Altitude Azimuth Distance (km) Brightness Sun altitude
Exits shadow 18:09:04 12° 16° (NNE) 1,456 3.7 -15.2°
Maximum altitude 18:12:10 80° 103° (ESE) 460 1.2 -15.7°
Drops below altitude 10° 18:15:29 10° 191° (SSW) 1,549 4.4 -16.2°
Sets 18:17:28 0° 193° (SSW) 2,400 5.4 -16.5°
